DW4604 Weather Reports


Display with metric or nautical units.
time (UTC)temp
F
wind
direction
speed
MPH
gust
MPH
rain 1hr
in
rain 24hr
in
rain mn
in
humidity
%
barometer
mb
20180623082451 56 317 3.0 13.0 0.00 0.00 0.00 75 1016.6
20180623081952 58 315 3.0 10.0 0.00 0.00 0.00 73 1016.5
20180623081452 59 313 2.0 10.0 0.00 0.00 0.00 70 1016.5
20180623080952 59 312 1.0 7.0 0.00 0.00 0.00 68 1016.3
20180623080451 59 315 2.0 6.0 0.00 0.00 0.00 68 1016.4
20180623075951 59 316 3.0 8.0 0.00 0.00 0.00 68 1016.5
20180623075452 58 310 3.0 10.0 0.00 0.00 0.00 71 1016.6
20180623074952 58 304 2.0 10.0 0.00 0.00 0.00 71 1016.7
20180623074451 57 310 2.0 8.0 0.00 0.00 0.00 73 1016.8
20180623073952 57 313 2.0 8.0 0.00 0.00 0.00 73 1016.9
20180623073452 57 311 3.0 8.0 0.00 0.00 0.00 74 1016.9
20180623072952 56 306 2.0 8.0 0.00 0.00 0.00 76 1016.9
20180623072452 56 250 2.0 8.0 0.00 0.00 0.00 77 1016.9
20180623071951 56 257 2.0 8.0 0.00 0.00 0.00 78 1016.8
20180623071451 56 272 1.0 7.0 0.00 0.00 0.00 78 1016.9
20180623070952 56 252 2.0 7.0 0.00 0.00 0.00 79 1016.8
20180623070452 56 276 1.0 5.0 0.00 0.00 0.00 80 1016.9
20180623065952 55 316 1.0 5.0 0.00 0.00 0.00 80 1016.9
20180623065452 55 309 1.0 4.0 0.00 0.00 0.00 83 1017.0
20180623064952 53 255 1.0 4.0 0.00 0.00 0.00 86 1017.1
20180623064452 52 250 1.0 6.0 0.00 0.00 0.00 85 1017.1
20180623063952 52 285 2.0 7.0 0.00 0.00 0.00 85 1017.2
20180623063452 52 297 1.0 7.0 0.00 0.00 0.00 84 1017.2
20180623062952 53 290 0.0 5.0 0.00 0.00 0.00 85 1017.3
20180623062452 52 312 0.0 4.0 0.00 0.00 0.00 86 1017.2
20180623061952 52 295 1.0 4.0 0.00 0.00 0.00 86 1017.3
20180623061452 52 300 1.0 5.0 0.00 0.00 0.00 86 1017.3
20180623060952 52 305 1.0 6.0 0.00 0.00 0.00 85 1017.3
20180623060452 52 306 1.0 6.0 0.00 0.00 0.00 84 1017.3
20180623055952 52 308 1.0 6.0 0.00 0.00 0.00 84 1017.3
20180623055452 52 308 1.0 6.0 0.00 0.00 0.00 84 1017.3
20180623054952 52 303 1.0 5.0 0.00 0.00 0.00 84 1017.3
20180623054452 52 299 1.0 5.0 0.00 0.00 0.00 84 1017.3
20180623053952 52 305 1.0 7.0 0.00 0.00 0.00 84 1017.3
20180623053452 52 309 1.0 7.0 0.00 0.00 0.00 83 1017.3
20180623052953 52 305 1.0 6.0 0.00 0.00 0.00 84 1017.3
20180623052452 51 299 2.0 6.0 0.00 0.00 0.00 83 1017.3
20180623051952 51 295 1.0 6.0 0.00 0.00 0.00 83 1017.4
20180623051452 51 277 1.0 6.0 0.00 0.00 0.00 84 1017.4
20180623050952 51 259 1.0 6.0 0.00 0.00 0.00 84 1017.4
20180623050452 51 257 1.0 6.0 0.00 0.00 0.00 84 1017.4
20180623045952 51 269 1.0 7.0 0.00 0.00 0.00 84 1017.3
20180623045453 51 285 1.0 7.0 0.00 0.00 0.00 84 1017.4
20180623044953 51 312 1.0 7.0 0.00 0.00 0.00 85 1017.4
20180623044453 51 305 0.0 7.0 0.00 0.00 0.00 85 1017.4
20180623043952 50 292 0.0 4.0 0.00 0.00 0.00 86 1017.5
20180623043452 50 287 0.0 4.0 0.00 0.00 0.00 87 1017.5
20180623042952 50 243 0.0 4.0 0.00 0.00 0.00 88 1017.4
20180623042452 49 241 0.0 4.0 0.00 0.00 0.00 88 1017.5
20180623041953 49 243 0.0 3.0 0.00 0.00 0.00 89 1017.5
20180623041453 49 248 0.0 2.0 0.00 0.00 0.00 90 1017.5
20180623040953 48 247 0.0 2.0 0.00 0.00 0.00 90 1017.5
20180623040452 48 239 0.0 1.0 0.00 0.00 0.00 90 1017.5
20180623035952 48 0 0.0 0.0 0.00 0.00 0.00 90 1017.5
20180623035452 48 0 0.0 0.0 0.00 0.00 0.00 90 1017.5
20180623034953 47 0 0.0 0.0 0.00 0.00 0.00 90 1017.5
20180623034452 47 0 0.0 0.0 0.00 0.00 0.00 90 1017.5
20180623033952 47 0 0.0 0.0 0.00 0.00 0.00 90 1017.5
20180623033452 47 0 0.0 0.0 0.00 0.00 0.00 90 1017.4
20180623032953 47 0 0.0 0.0 0.00 0.00 0.00 90 1017.4
20180623032452 47 0 0.0 0.0 0.00 0.00 0.00 90 1017.4
20180623031953 47 0 0.0 0.0 0.00 0.00 0.00 90 1017.4
20180623031453 47 0 0.0 0.0 0.00 0.00 0.00 90 1017.3
20180623030953 47 0 0.0 0.0 0.00 0.00 0.00 90 1017.3
20180623030453 47 0 0.0 0.0 0.00 0.00 0.00 90 1017.4
20180623025953 47 0 0.0 0.0 0.00 0.00 0.00 89 1017.4
20180623025453 47 0 0.0 0.0 0.00 0.00 0.00 89 1017.4
20180623024953 47 0 0.0 0.0 0.00 0.00 0.00 89 1017.4
20180623024452 47 0 0.0 0.0 0.00 0.00 0.00 88 1017.4
20180623023952 47 0 0.0 0.0 0.00 0.00 0.00 88 1017.4
20180623023452 47 0 0.0 0.0 0.00 0.00 0.00 88 1017.4
20180623022953 47 0 0.0 0.0 0.00 0.00 0.00 88 1017.3
20180623022452 47 0 0.0 0.0 0.00 0.00 0.00 87 1017.3
20180623021952 48 0 0.0 0.0 0.00 0.00 0.00 87 1017.3
20180623021452 48 0 0.0 0.0 0.00 0.00 0.00 86 1017.3
20180623020953 48 0 0.0 0.0 0.00 0.00 0.00 86 1017.3
20180623020453 48 0 0.0 0.0 0.00 0.00 0.00 86 1017.3
20180623015953 48 232 0.0 1.0 0.00 0.00 0.00 86 1017.3
20180623015453 49 248 0.0 2.0 0.00 0.00 0.00 85 1017.2
20180623014953 49 248 0.0 2.0 0.00 0.00 0.00 85 1017.3
20180623014453 49 237 0.0 1.0 0.00 0.00 0.00 85 1017.3
20180623013953 49 250 0.0 2.0 0.00 0.00 0.00 85 1017.3
20180623013453 49 256 0.0 2.0 0.00 0.00 0.00 85 1017.3
20180623012952 49 255 0.0 2.0 0.00 0.00 0.00 85 1017.3
20180623012452 48 251 0.0 2.0 0.00 0.00 0.00 85 1017.3
20180623011953 48 247 0.0 2.0 0.00 0.00 0.00 85 1017.3
20180623011452 48 231 0.0 1.0 0.00 0.00 0.00 84 1017.4
20180623010952 48 235 0.0 1.0 0.00 0.00 0.00 84 1017.5
20180623010453 49 241 0.0 3.0 0.00 0.00 0.00 84 1017.4
20180623005953 49 242 0.0 3.0 0.00 0.00 0.00 83 1017.4
20180623005453 49 245 0.0 2.0 0.00 0.00 0.00 83 1017.5
20180623004953 49 253 0.0 1.0 0.00 0.00 0.00 83 1017.4
20180623004453 49 243 0.0 1.0 0.00 0.00 0.00 82 1017.4
20180623003953 49 268 0.0 2.0 0.00 0.00 0.00 82 1017.4
20180623003453 50 304 0.0 2.0 0.00 0.00 0.00 82 1017.4
20180623002953 50 307 0.0 2.0 0.00 0.00 0.00 82 1017.4
20180623002453 50 312 0.0 4.0 0.00 0.00 0.00 82 1017.4
20180623001954 50 308 0.0 4.0 0.00 0.00 0.00 81 1017.4
20180623001453 50 298 0.0 2.0 0.00 0.00 0.00 81 1017.4
20180623000953 51 335 0.0 2.0 0.00 0.00 0.00 80 1017.4
20180623000453 51 306 0.0 2.0 0.00 0.00 0.00 80 1017.4
20180622235953 51 323 0.0 3.0 0.00 0.00 0.00 79 1017.4
20180622235453 52 316 1.0 5.0 0.00 0.00 0.00 79 1017.4
20180622234953 52 311 1.0 5.0 0.00 0.00 0.00 78 1017.3
20180622234454 52 310 1.0 5.0 0.00 0.00 0.00 78 1017.2
20180622233954 52 309 1.0 8.0 0.00 0.00 0.00 78 1017.2
20180622233453 52 314 1.0 8.0 0.00 0.00 0.00 77 1017.3
20180622232953 52 313 1.0 6.0 0.00 0.00 0.00 77 1017.3
20180622232453 52 313 1.0 6.0 0.00 0.00 0.00 77 1017.3
20180622231953 52 316 2.0 8.0 0.00 0.00 0.00 77 1017.4
20180622231453 52 314 2.0 8.0 0.00 0.00 0.00 77 1017.4
20180622230953 52 313 1.0 7.0 0.00 0.00 0.00 77 1017.4
20180622230453 52 318 1.0 4.0 0.00 0.00 0.00 77 1017.4
20180622225954 52 318 1.0 5.0 0.00 0.00 0.00 77 1017.4
20180622225454 52 313 1.0 6.0 0.00 0.00 0.00 77 1017.4
20180622224954 52 310 2.0 6.0 0.00 0.00 0.00 76 1017.4
20180622224453 52 313 2.0 9.0 0.00 0.00 0.00 76 1017.5
20180622223953 52 313 2.0 9.0 0.00 0.00 0.00 76 1017.5
20180622223453 52 310 2.0 8.0 0.00 0.00 0.00 75 1017.5
20180622222954 52 311 2.0 8.0 0.00 0.00 0.00 75 1017.5
20180622222454 52 314 2.0 7.0 0.00 0.00 0.00 74 1017.4
20180622221954 53 315 1.0 6.0 0.00 0.00 0.00 74 1017.5
20180622221453 53 312 1.0 6.0 0.00 0.00 0.00 74 1017.5
20180622220953 53 312 1.0 6.0 0.00 0.00 0.00 74 1017.5
20180622220453 53 312 2.0 7.0 0.00 0.00 0.00 73 1017.6
20180622215954 53 311 2.0 8.0 0.00 0.00 0.00 73 1017.5
20180622215454 53 311 1.0 8.0 0.00 0.00 0.00 72 1017.4
20180622214953 54 314 1.0 7.0 0.00 0.00 0.00 72 1017.4
20180622214453 54 320 1.0 6.0 0.00 0.00 0.00 71 1017.3
20180622213954 54 315 1.0 6.0 0.00 0.00 0.00 71 1017.3
20180622213454 54 311 1.0 5.0 0.00 0.00 0.00 71 1017.2
20180622212954 54 313 1.0 5.0 0.00 0.00 0.00 71 1017.2
20180622212454 54 318 0.0 5.0 0.00 0.00 0.00 72 1017.2
20180622211954 54 337 0.0 3.0 0.00 0.00 0.00 72 1017.1
20180622211454 54 301 0.0 1.0 0.00 0.00 0.00 73 1017.1
20180622210953 54 241 0.0 1.0 0.00 0.00 0.00 73 1017.1
20180622210453 54 241 0.0 1.0 0.00 0.00 0.00 73 1017.0
20180622205953 54 243 0.0 2.0 0.00 0.00 0.00 72 1017.1
20180622205454 54 244 0.0 2.0 0.00 0.00 0.00 71 1017.0
20180622204954 54 247 0.0 2.0 0.00 0.00 0.00 70 1016.9
20180622204454 55 265 0.0 1.0 0.00 0.00 0.00 70 1016.9
20180622203954 55 314 0.0 1.0 0.00 0.00 0.00 69 1016.9
20180622203454 55 330 0.0 1.0 0.00 0.00 0.00 70 1016.9
20180622202954 55 318 0.0 3.0 0.00 0.00 0.00 68 1017.0
20180622202453 55 316 0.0 3.0 0.00 0.00 0.00 68 1017.0
20180622201953 55 314 0.0 3.0 0.00 0.00 0.00 68 1016.9
20180622201454 55 311 0.0 2.0 0.00 0.00 0.00 69 1017.0
20180622200954 55 296 0.0 2.0 0.00 0.00 0.00 69 1017.0
20180622200454 55 248 0.0 2.0 0.00 0.00 0.00 70 1017.1
20180622195954 55 244 0.0 1.0 0.00 0.00 0.00 70 1017.0
20180622195454 55 240 0.0 1.0 0.00 0.00 0.00 70 1017.0
20180622194954 56 328 0.0 1.0 0.00 0.00 0.00 70 1016.9
20180622194454 56 328 0.0 1.0 0.00 0.00 0.00 68 1016.9
20180622193955 56 327 0.0 1.0 0.00 0.00 0.00 68 1016.9
20180622193454 56 327 0.0 1.0 0.00 0.01 0.00 68 1016.9
20180622192954 56 327 0.0 1.0 0.00 0.01 0.00 68 1016.8
20180622192454 56 323 0.0 2.0 0.00 0.02 0.00 67 1016.8
20180622191954 56 322 0.0 2.0 0.00 0.02 0.00 67 1016.7
20180622191454 56 0 0.0 0.0 0.00 0.02 0.00 66 1016.7
20180622190955 56 0 0.0 0.0 0.00 0.02 0.00 66 1016.5
20180622190454 56 321 0.0 2.0 0.00 0.03 0.00 65 1016.5
20180622185954 57 321 0.0 2.0 0.00 0.04 0.00 65 1016.5
20180622185454 57 347 0.0 1.0 0.00 0.04 0.00 65 1016.4
20180622184954 57 347 0.0 1.0 0.00 0.04 0.00 65 1016.4
20180622184454 57 346 0.0 1.0 0.00 0.04 0.00 65 1016.4
20180622183955 57 346 0.0 1.0 0.00 0.04 0.00 62 1016.3
20180622183455 58 348 0.0 1.0 0.00 0.04 0.00 63 1016.3
20180622182954 58 348 0.0 1.0 0.00 0.04 0.00 62 1016.2
20180622182454 58 241 0.0 1.0 0.00 0.04 0.00 62 1016.3
20180622181954 58 241 0.0 1.0 0.00 0.04 0.00 61 1016.3
20180622181454 58 241 0.0 1.0 0.00 0.04 0.00 60 1016.4
20180622180954 59 289 0.0 2.0 0.00 0.04 0.00 59 1016.3
20180622180455 59 310 0.0 3.0 0.00 0.05 0.00 57 1016.2
20180622175955 59 311 1.0 3.0 0.00 0.05 0.00 56 1016.2
20180622175454 59 313 1.0 4.0 0.00 0.05 0.00 56 1016.2
20180622174954 59 313 1.0 4.0 0.00 0.05 0.00 56 1016.3
20180622174454 59 315 1.0 5.0 0.00 0.05 0.00 56 1016.2
20180622173955 59 308 1.0 5.0 0.00 0.05 0.00 56 1016.2
20180622173455 59 312 1.0 5.0 0.00 0.05 0.00 55 1016.2
20180622172955 59 307 1.0 5.0 0.00 0.05 0.00 55 1016.3
20180622172454 59 305 1.0 5.0 0.00 0.05 0.00 55 1016.3
20180622171954 59 318 1.0 4.0 0.00 0.05 0.00 55 1016.2
20180622171454 59 317 1.0 5.0 0.00 0.05 0.00 54 1016.1
20180622170955 59 312 2.0 7.0 0.00 0.05 0.00 55 1016.1
20180622170455 59 303 1.0 7.0 0.00 0.05 0.00 54 1016.1
20180622165954 60 271 1.0 5.0 0.00 0.05 0.00 54 1016.1
20180622165454 60 258 1.0 6.0 0.00 0.05 0.00 54 1016.1
20180622164955 60 273 2.0 6.0 0.00 0.05 0.00 55 1016.1
20180622164455 60 286 2.0 8.0 0.00 0.05 0.00 55 1016.1
20180622163955 60 269 2.0 8.0 0.00 0.05 0.00 54 1016.1
20180622163455 60 266 2.0 7.0 0.00 0.05 0.00 55 1016.1
20180622162954 61 300 2.0 7.0 0.00 0.05 0.00 54 1016.1
20180622162454 60 311 2.0 7.0 0.00 0.05 0.00 54 1016.0
20180622161955 60 315 2.0 9.0 0.00 0.05 0.00 53 1016.0
20180622161455 60 306 1.0 9.0 0.00 0.05 0.00 53 1016.0
20180622160955 60 299 1.0 7.0 0.00 0.05 0.00 54 1015.9
20180622160455 60 310 1.0 8.0 0.00 0.05 0.00 53 1016.0
20180622155954 60 320 2.0 9.0 0.00 0.05 0.00 53 1015.9
20180622155455 60 319 2.0 9.0 0.00 0.05 0.00 54 1016.0
20180622154955 60 312 1.0 7.0 0.00 0.05 0.00 53 1015.9
20180622154455 60 309 2.0 10.0 0.00 0.05 0.00 53 1015.9
20180622153955 60 312 3.0 11.0 0.00 0.05 0.00 53 1016.0
20180622153455 60 309 3.0 11.0 0.00 0.05 0.00 53 1016.0
20180622152955 60 307 3.0 10.0 0.00 0.05 0.00 53 1016.0
20180622152454 61 315 4.0 12.0 0.00 0.05 0.00 52 1016.0
20180622151955 61 314 3.0 12.0 0.00 0.05 0.00 52 1016.0
20180622151455 62 309 2.0 9.0 0.00 0.05 0.00 51 1015.9
20180622150955 62 304 3.0 10.0 0.00 0.05 0.00 51 1015.9
20180622150455 62 308 3.0 10.0 0.00 0.05 0.00 51 1015.9
20180622145955 62 317 2.0 10.0 0.00 0.05 0.00 51 1015.9
20180622145455 63 316 3.0 8.0 0.00 0.05 0.00 50 1015.9
20180622144957 63 304 3.0 8.0 0.00 0.05 0.00 48 1015.9
20180622144455 63 305 3.0 10.0 0.00 0.05 0.00 49 1015.9
20180622143955 63 318 3.0 12.0 0.00 0.05 0.00 48 1015.9
20180622143455 63 321 4.0 12.0 0.00 0.05 0.00 48 1015.9
20180622142955 63 319 4.0 10.0 0.00 0.05 0.00 48 1015.9
20180622142455 63 312 3.0 9.0 0.00 0.05 0.00 48 1015.9
20180622141955 62 311 3.0 11.0 0.00 0.05 0.00 50 1015.9
20180622141455 62 310 4.0 11.0 0.00 0.05 0.00 50 1016.0
20180622140956 63 304 3.0 10.0 0.00 0.05 0.00 49 1015.8
20180622140455 63 305 3.0 10.0 0.00 0.05 0.00 49 1015.7
20180622135955 63 309 3.0 12.0 0.00 0.05 0.00 48 1015.9
20180622135455 64 316 3.0 12.0 0.00 0.05 0.00 48 1015.9
20180622134956 62 312 3.0 8.0 0.00 0.05 0.00 50 1015.9
20180622134456 62 301 3.0 11.0 0.00 0.05 0.00 49 1015.8
20180622133955 62 285 3.0 11.0 0.00 0.05 0.00 49 1015.8
20180622133455 62 278 3.0 10.0 0.00 0.05 0.00 49 1015.9
20180622132955 62 295 4.0 10.0 0.00 0.05 0.00 48 1015.9
20180622132456 63 307 4.0 12.0 0.00 0.05 0.00 47 1015.9
20180622131955 63 304 4.0 12.0 0.00 0.05 0.00 47 1016.0
20180622131455 63 305 4.0 12.0 0.00 0.05 0.00 48 1015.9
20180622130955 63 278 4.0 11.0 0.00 0.05 0.00 48 1015.9
20180622130455 62 267 3.0 10.0 0.00 0.05 0.00 49 1016.0
20180622125956 62 302 4.0 12.0 0.00 0.05 0.00 47 1016.0
20180622125455 62 304 4.0 12.0 0.00 0.05 0.00 49 1016.1
20180622124955 63 287 3.0 12.0 0.00 0.05 0.00 48 1016.1
20180622124455 64 294 3.0 9.0 0.00 0.05 0.00 48 1016.1
20180622123956 64 319 4.0 10.0 0.00 0.05 0.00 49 1016.2
20180622123456 63 318 4.0 10.0 0.00 0.05 0.00 50 1016.2
20180622122956 63 316 3.0 10.0 0.00 0.05 0.00 51 1016.2
20180622122456 63 312 3.0 10.0 0.00 0.05 0.00 51 1016.3
20180622121956 63 300 3.0 9.0 0.00 0.05 0.00 50 1016.2
20180622121455 63 284 4.0 11.0 0.00 0.05 0.00 49 1016.2
20180622120955 63 295 3.0 11.0 0.00 0.05 0.00 48 1016.2
20180622120455 63 280 4.0 10.0 0.00 0.05 0.00 47 1016.3
20180622115956 63 274 4.0 10.0 0.00 0.05 0.00 47 1016.3
20180622115456 63 307 3.0 11.0 0.00 0.05 0.00 46 1016.3
20180622114955 63 305 3.0 11.0 0.00 0.05 0.00 46 1016.3
20180622114455 63 315 3.0 12.0 0.00 0.05 0.00 48 1016.2
20180622113956 62 324 4.0 12.0 0.00 0.05 0.00 48 1016.3
20180622113456 62 316 4.0 12.0 0.00 0.05 0.00 49 1016.2
20180622112956 62 314 3.0 12.0 0.00 0.05 0.00 48 1016.1
20180622112455 62 312 3.0 9.0 0.00 0.05 0.00 48 1016.3
20180622111956 62 308 3.0 9.0 0.00 0.05 0.00 51 1016.3
20180622111456 63 304 3.0 9.0 0.00 0.05 0.00 49 1016.4
20180622110956 62 311 4.0 10.0 0.00 0.05 0.00 49 1016.3
20180622110455 62 315 3.0 10.0 0.00 0.05 0.00 49 1016.3
20180622105956 63 294 2.0 11.0 0.00 0.05 0.00 48 1016.4
20180622105456 62 301 3.0 11.0 0.00 0.05 0.00 49 1016.4
20180622104956 62 285 3.0 11.0 0.00 0.05 0.00 49 1016.4
20180622104455 62 281 3.0 8.0 0.00 0.05 0.00 50 1016.5
20180622103956 62 299 3.0 8.0 0.00 0.05 0.00 47 1016.5
20180622103456 62 291 3.0 11.0 0.00 0.05 0.00 49 1016.5
20180622102956 62 280 2.0 13.0 0.00 0.05 0.00 51 1016.6
20180622102455 61 277 2.0 13.0 0.00 0.05 0.00 52 1016.7
20180622101956 61 286 1.0 7.0 0.00 0.05 0.00 53 1016.7
20180622101456 61 281 2.0 6.0 0.00 0.05 0.00 54 1016.7
20180622100956 60 304 2.0 9.0 0.00 0.05 0.00 55 1016.7
20180622100455 60 302 2.0 10.0 0.00 0.05 0.00 53 1016.6
20180622095956 60 306 2.0 10.0 0.00 0.05 0.00 54 1016.6
20180622095456 60 287 2.0 9.0 0.00 0.05 0.00 55 1016.6
20180622094956 60 282 2.0 8.0 0.00 0.05 0.00 55 1016.7
20180622094456 60 310 2.0 7.0 0.00 0.05 0.00 56 1016.9
20180622093956 60 293 2.0 7.0 0.00 0.05 0.00 58 1016.9
20180622093456 60 263 2.0 8.0 0.00 0.05 0.00 60 1016.9
20180622092956 60 272 1.0 8.0 0.00 0.05 0.00 60 1016.9
20180622092456 60 300 2.0 6.0 0.00 0.05 0.00 58 1016.9
20180622091956 60 286 2.0 7.0 0.00 0.05 0.00 58 1016.8
20180622091457 59 284 2.0 7.0 0.00 0.05 0.00 58 1016.8
20180622090956 60 306 2.0 7.0 0.00 0.05 0.00 61 1016.8
20180622090457 59 281 2.0 7.0 0.00 0.05 0.00 61 1016.6
20180622085956 58 246 3.0 9.0 0.00 0.05 0.00 63 1016.7
20180622085456 59 243 2.0 10.0 0.00 0.05 0.00 61 1016.8
20180622084956 59 242 1.0 10.0 0.00 0.05 0.00 62 1016.7
20180622084456 59 293 2.0 7.0 0.00 0.05 0.00 62 1016.6
20180622083957 58 303 3.0 11.0 0.00 0.05 0.00 64 1016.6
20180622083456 58 296 4.0 13.0 0.00 0.05 0.00 63 1016.6
20180622082956 58 308 4.0 13.0 0.00 0.05 0.00 62 1016.5